User: anonymous   Login
Location: Elk Forest
(39.5314°N, 75.8738°W)
Time: 12:29:05
(UTC-04:00)
Language:

Resurs 01 Rocket - Orbit

View from above orbital plane
View from above orbital plane
View from above satellite
View from above satellite

Ground track
Ground track

The orbit data is extracted from the following two-line orbital elements,

1 23343U 94074B   16210.17338832 -.00000003  00000-0  72064-5 0  9992
2 23343  98.1912 237.2803 0007723  40.6273   1.2624 14.76664793169018
Epoch (UTC): 28 July 2016 04:09:40
Eccentricity: 0.0007723
inclination: 98.1912°
perigee height: 634 km
apogee height: 645 km
right ascension of ascending node: 237.2803°
argument of perigee: 40.6273°
revolutions per day: 14.76664793
mean anomaly at epoch: 1.2624°
orbit number at epoch: 16901

The dashed part of the orbit path shows where the satellite is in the earth's shadow,  

DLR